Saint Bonnet de Bellac- Haute Vienne - France
Donnes mto: dimanche, 13/11/2011
Date Horaire Temp. E. Hum. E. P.atmo. Pluie Vent Direction Direction Ensoleilleme Solaire P. de rose Temp au vent Rafales
13/11/2011 00:00 10,6 C 86 % 1023,4 hPa 0,0 mm 0,0 km/h (0 Bft) E 90 0 min 0 W/m 8,4 C 10,6 C 0,0 km/h (0 Bft)
13/11/2011 00:05 10,5 C 86 % 1023,5 hPa 0,0 mm 0,0 km/h (0 Bft) E-SE 112 0 min 0 W/m 8,3 C 10,5 C 0,0 km/h (0 Bft)
13/11/2011 00:10 10,4 C 86 % 1023,4 hPa 0,0 mm 1,4 km/h (1 Bft) E-SE 112 0 min 0 W/m 8,2 C 10,4 C 1,4 km/h (1 Bft)
13/11/2011 00:15 10,4 C 86 % 1023,3 hPa 0,0 mm 1,1 km/h (1 Bft) E-SE 112 0 min 0 W/m 8,2 C 10,4 C 1,1 km/h (1 Bft)
13/11/2011 00:20 10,4 C 86 % 1023,3 hPa 0,0 mm 1,4 km/h (1 Bft) E-SE 112 0 min 0 W/m 8,2 C 10,4 C 3,2 km/h (1 Bft)
13/11/2011 00:25 10,5 C 87 % 1023,3 hPa 0,0 mm 4,0 km/h (1 Bft) E-SE 112 0 min 0 W/m 8,4 C 10,5 C 7,2 km/h (2 Bft)
13/11/2011 00:30 10,5 C 87 % 1023,2 hPa 0,0 mm 2,2 km/h (1 Bft) E-SE 112 0 min 0 W/m 8,4 C 10,5 C 4,3 km/h (1 Bft)
13/11/2011 00:35 10,5 C 87 % 1023,3 hPa 0,0 mm 2,2 km/h (1 Bft) E-SE 112 0 min 0 W/m 8,4 C 10,5 C 4,3 km/h (1 Bft)
13/11/2011 00:40 10,6 C 87 % 1023,1 hPa 0,0 mm 5,8 km/h (2 Bft) SE 135 0 min 0 W/m 8,5 C 10,6 C 9,7 km/h (2 Bft)
13/11/2011 00:45 10,6 C 87 % 1023,1 hPa 0,0 mm 4,0 km/h (1 Bft) SE 135 0 min 0 W/m 8,5 C 10,6 C 7,2 km/h (2 Bft)
13/11/2011 00:50 10,6 C 87 % 1023,1 hPa 0,0 mm 1,1 km/h (1 Bft) E-SE 112 0 min 0 W/m 8,5 C 10,6 C 1,4 km/h (1 Bft)
13/11/2011 00:55 10,8 C 87 % 1023,0 hPa 0,0 mm 6,8 km/h (2 Bft) E-SE 112 0 min 0 W/m 8,7 C 10,8 C 10,1 km/h (2 Bft)
13/11/2011 01:00 10,8 C 87 % 1023,0 hPa 0,0 mm 5,0 km/h (1 Bft) E 90 0 min 0 W/m 8,7 C 10,8 C 8,3 km/h (2 Bft)
13/11/2011 01:05 10,9 C 88 % 1022,9 hPa 0,0 mm 6,1 km/h (2 Bft) E 90 0 min 0 W/m 9,0 C 10,9 C 8,6 km/h (2 Bft)
13/11/2011 01:10 10,9 C 87 % 1022,8 hPa 0,0 mm 4,3 km/h (1 Bft) E 90 0 min 0 W/m 8,8 C 10,9 C 8,3 km/h (2 Bft)
13/11/2011 01:15 10,9 C 87 % 1022,8 hPa 0,0 mm 4,7 km/h (1 Bft) E 90 0 min 0 W/m 8,8 C 10,9 C 9,4 km/h (2 Bft)
13/11/2011 01:20 11,1 C 87 % 1022,7 hPa 0,0 mm 6,5 km/h (2 Bft) E 90 0 min 0 W/m 9,0 C 11,1 C 11,9 km/h (2 Bft)
13/11/2011 01:25 11,1 C 87 % 1022,6 hPa 0,0 mm 9,4 km/h (2 Bft) SE 135 0 min 0 W/m 9,0 C 11,1 C 11,9 km/h (2 Bft)
13/11/2011 01:30 11,3 C 86 % 1022,6 hPa 0,0 mm 9,4 km/h (2 Bft) N 360 0 min 0 W/m 9,0 C 11,3 C 9,4 km/h (2 Bft)
13/11/2011 01:35 11,5 C 86 % 1022,6 hPa 0,0 mm 7,2 km/h (2 Bft) SE 135 0 min 0 W/m 9,2 C 11,5 C 12,2 km/h (2 Bft)
13/11/2011 01:40 11,6 C 85 % 1022,6 hPa 0,0 mm 5,0 km/h (1 Bft) SE 135 0 min 0 W/m 9,2 C 11,6 C 5,0 km/h (1 Bft)
13/11/2011 01:45 11,8 C 84 % 1022,6 hPa 0,0 mm 7,9 km/h (2 Bft) E 90 0 min 0 W/m 9,2 C 11,8 C 10,8 km/h (2 Bft)
13/11/2011 01:50 11,9 C 83 % 1022,5 hPa 0,0 mm 8,3 km/h (2 Bft) E-SE 112 0 min 0 W/m 9,1 C 11,9 C 11,2 km/h (2 Bft)
13/11/2011 01:55 11,9 C 83 % 1022,4 hPa 0,0 mm 4,3 km/h (1 Bft) SE 135 0 min 0 W/m 9,1 C 11,9 C 4,3 km/h (1 Bft)
13/11/2011 02:02 11,8 C 83 % 1022,4 hPa 0,0 mm 6,8 km/h (2 Bft) E-SE 112 0 min 0 W/m 9,0 C 11,8 C 10,4 km/h (2 Bft)
13/11/2011 02:05 11,8 C 83 % 1022,5 hPa 0,0 mm 4,0 km/h (1 Bft) E-SE 112 0 min 0 W/m 9,0 C 11,8 C 11,2 km/h (2 Bft)
13/11/2011 02:10 11,7 C 83 % 1022,4 hPa 0,0 mm 1,1 km/h (1 Bft) E-SE 112 0 min 0 W/m 8,9 C 11,7 C 3,6 km/h (1 Bft)
13/11/2011 02:15 11,6 C 83 % 1022,4 hPa 0,0 mm 1,4 km/h (1 Bft) E-SE 112 0 min 0 W/m 8,8 C 11,6 C 4,3 km/h (1 Bft)
13/11/2011 02:20 11,6 C 83 % 1022,4 hPa 0,0 mm 4,7 km/h (1 Bft) E 90 0 min 0 W/m 8,8 C 11,6 C 4,7 km/h (1 Bft)
13/11/2011 02:25 11,4 C 83 % 1022,4 hPa 0,0 mm 4,0 km/h (1 Bft) E 90 0 min 0 W/m 8,6 C 11,4 C 4,0 km/h (1 Bft)
13/11/2011 02:30 11,3 C 83 % 1022,4 hPa 0,0 mm 5,8 km/h (2 Bft) E 90 0 min 0 W/m 8,5 C 11,3 C 8,6 km/h (2 Bft)
13/11/2011 02:35 11,1 C 83 % 1022,4 hPa 0,0 mm 2,9 km/h (1 Bft) E 90 0 min 0 W/m 8,3 C 11,1 C 4,3 km/h (1 Bft)
13/11/2011 02:40 10,9 C 84 % 1022,3 hPa 0,0 mm 4,3 km/h (1 Bft) E-SE 112 0 min 0 W/m 8,3 C 10,9 C 6,1 km/h (2 Bft)
13/11/2011 02:45 10,8 C 84 % 1022,3 hPa 0,0 mm 2,2 km/h (1 Bft) E 90 0 min 0 W/m 8,2 C 10,8 C 4,3 km/h (1 Bft)
13/11/2011 02:50 10,8 C 84 % 1022,4 hPa 0,0 mm 2,2 km/h (1 Bft) E-SE 112 0 min 0 W/m 8,2 C 10,8 C 6,8 km/h (2 Bft)
13/11/2011 02:55 10,8 C 84 % 1022,3 hPa 0,0 mm 4,7 km/h (1 Bft) E 90 0 min 0 W/m 8,2 C 10,8 C 4,7 km/h (1 Bft)
13/11/2011 03:00 10,8 C 85 % 1022,3 hPa 0,0 mm 3,2 km/h (1 Bft) E 90 0 min 0 W/m 8,4 C 10,8 C 5,4 km/h (2 Bft)
13/11/2011 03:05 10,6 C 85 % 1022,3 hPa 0,0 mm 6,1 km/h (2 Bft) E-SE 112 0 min 0 W/m 8,2 C 10,6 C 9,4 km/h (2 Bft)
13/11/2011 03:10 10,6 C 85 % 1022,3 hPa 0,0 mm 5,4 km/h (2 Bft) E 90 0 min 0 W/m 8,2 C 10,6 C 7,6 km/h (2 Bft)
13/11/2011 03:15 10,5 C 85 % 1022,2 hPa 0,0 mm 3,6 km/h (1 Bft) E 90 0 min 0 W/m 8,1 C 10,5 C 3,6 km/h (1 Bft)
13/11/2011 03:20 10,5 C 86 % 1022,2 hPa 0,0 mm 5,0 km/h (1 Bft) SE 135 0 min 0 W/m 8,3 C 10,5 C 7,2 km/h (2 Bft)
13/11/2011 03:25 10,5 C 86 % 1022,2 hPa 0,0 mm 3,2 km/h (1 Bft) E-SE 112 0 min 0 W/m 8,3 C 10,5 C 4,3 km/h (1 Bft)
13/11/2011 03:30 10,4 C 86 % 1022,2 hPa 0,0 mm 6,1 km/h (2 Bft) E 90 0 min 0 W/m 8,2 C 10,4 C 9,4 km/h (2 Bft)
13/11/2011 03:35 10,4 C 86 % 1022,1 hPa 0,0 mm 2,2 km/h (1 Bft) SE 135 0 min 0 W/m 8,2 C 10,4 C 4,0 km/h (1 Bft)
13/11/2011 03:40 10,4 C 86 % 1022,1 hPa 0,0 mm 2,9 km/h (1 Bft) SE 135 0 min 0 W/m 8,2 C 10,4 C 4,3 km/h (1 Bft)
13/11/2011 03:45 10,5 C 86 % 1022,1 hPa 0,0 mm 4,0 km/h (1 Bft) SE 135 0 min 0 W/m 8,3 C 10,5 C 7,9 km/h (2 Bft)
13/11/2011 03:50 10,5 C 86 % 1022,2 hPa 0,0 mm 5,0 km/h (1 Bft) E-SE 112 0 min 0 W/m 8,3 C 10,5 C 7,6 km/h (2 Bft)
13/11/2011 03:55 10,6 C 86 % 1022,1 hPa 0,0 mm 3,2 km/h (1 Bft) E-SE 112 0 min 0 W/m 8,4 C 10,6 C 4,3 km/h (1 Bft)
13/11/2011 04:00 10,7 C 86 % 1022,1 hPa 0,0 mm 5,4 km/h (2 Bft) SE 135 0 min 0 W/m 8,5 C 10,7 C 9,4 km/h (2 Bft)
13/11/2011 04:05 10,8 C 86 % 1022,1 hPa 0,0 mm 1,1 km/h (1 Bft) SE 135 0 min 0 W/m 8,6 C 10,8 C 6,5 km/h (2 Bft)
13/11/2011 04:10 10,9 C 86 % 1022,1 hPa 0,0 mm 3,6 km/h (1 Bft) SE 135 0 min 0 W/m 8,7 C 10,9 C 7,6 km/h (2 Bft)
13/11/2011 04:15 10,9 C 85 % 1022,2 hPa 0,0 mm 5,4 km/h (2 Bft) SE 135 0 min 0 W/m 8,5 C 10,9 C 8,6 km/h (2 Bft)
13/11/2011 04:20 11,1 C 85 % 1022,2 hPa 0,0 mm 7,9 km/h (2 Bft) E-SE 112 0 min 0 W/m 8,7 C 11,1 C 12,6 km/h (3 Bft)
13/11/2011 04:25 11,3 C 84 % 1022,2 hPa 0,0 mm 7,9 km/h (2 Bft) S-SE 157 0 min 0 W/m 8,7 C 11,3 C 10,1 km/h (2 Bft)
13/11/2011 04:30 11,3 C 84 % 1022,2 hPa 0,0 mm 4,3 km/h (1 Bft) SE 135 0 min 0 W/m 8,7 C 11,3 C 4,3 km/h (1 Bft)
13/11/2011 04:35 11,3 C 84 % 1022,2 hPa 0,0 mm 1,4 km/h (1 Bft) SE 135 0 min 0 W/m 8,7 C 11,3 C 3,6 km/h (1 Bft)
13/11/2011 04:40 11,3 C 84 % 1022,2 hPa 0,0 mm 6,1 km/h (2 Bft) S-SE 157 0 min 0 W/m 8,7 C 11,3 C 11,9 km/h (2 Bft)
13/11/2011 04:45 11,3 C 84 % 1022,2 hPa 0,0 mm 1,1 km/h (1 Bft) E 90 0 min 0 W/m 8,7 C 11,3 C 4,0 km/h (1 Bft)
13/11/2011 04:50 11,2 C 83 % 1022,2 hPa 0,0 mm 0,4 km/h (0 Bft) E 90 0 min 0 W/m 8,4 C 11,2 C 0,4 km/h (0 Bft)
13/11/2011 04:55 11,2 C 83 % 1022,3 hPa 0,0 mm 4,7 km/h (1 Bft) SE 135 0 min 0 W/m 8,4 C 11,2 C 8,3 km/h (2 Bft)
13/11/2011 05:00 11,2 C 83 % 1022,3 hPa 0,0 mm 3,6 km/h (1 Bft) S-SE 157 0 min 0 W/m 8,4 C 11,2 C 7,2 km/h (2 Bft)
13/11/2011 05:05 11,2 C 84 % 1022,2 hPa 0,0 mm 6,5 km/h (2 Bft) S-SE 157 0 min 0 W/m 8,6 C 11,2 C 10,4 km/h (2 Bft)
13/11/2011 05:10 11,2 C 84 % 1022,2 hPa 0,0 mm 2,5 km/h (1 Bft) SE 135 0 min 0 W/m 8,6 C 11,2 C 7,6 km/h (2 Bft)
13/11/2011 05:15 11,3 C 83 % 1022,2 hPa 0,0 mm 5,4 km/h (2 Bft) SE 135 0 min 0 W/m 8,5 C 11,3 C 7,2 km/h (2 Bft)
13/11/2011 05:20 11,3 C 83 % 1022,3 hPa 0,0 mm 6,5 km/h (2 Bft) SE 135 0 min 0 W/m 8,5 C 11,3 C 8,6 km/h (2 Bft)
13/11/2011 05:25 11,4 C 83 % 1022,4 hPa 0,0 mm 3,2 km/h (1 Bft) SE 135 0 min 0 W/m 8,6 C 11,4 C 3,6 km/h (1 Bft)
13/11/2011 05:30 11,4 C 83 % 1022,3 hPa 0,0 mm 4,3 km/h (1 Bft) SE 135 0 min 0 W/m 8,6 C 11,4 C 7,6 km/h (2 Bft)
13/11/2011 05:35 11,5 C 83 % 1022,3 hPa 0,0 mm 4,0 km/h (1 Bft) E 90 0 min 0 W/m 8,7 C 11,5 C 4,3 km/h (1 Bft)
13/11/2011 05:40 11,5 C 82 % 1022,3 hPa 0,0 mm 7,9 km/h (2 Bft) SE 135 0 min 0 W/m 8,5 C 11,5 C 13,0 km/h (3 Bft)
13/11/2011 05:45 11,5 C 82 % 1022,3 hPa 0,0 mm 2,2 km/h (1 Bft) SE 135 0 min 0 W/m 8,5 C 11,5 C 4,3 km/h (1 Bft)
13/11/2011 05:50 11,5 C 82 % 1022,2 hPa 0,0 mm 2,5 km/h (1 Bft) E-SE 112 0 min 0 W/m 8,5 C 11,5 C 2,5 km/h (1 Bft)
13/11/2011 05:55 11,5 C 82 % 1022,3 hPa 0,0 mm 9,4 km/h (2 Bft) E-SE 112 0 min 0 W/m 8,5 C 11,5 C 9,4 km/h (2 Bft)
13/11/2011 06:00 11,6 C 82 % 1022,2 hPa 0,0 mm 8,6 km/h (2 Bft) SE 135 0 min 0 W/m 8,6 C 11,6 C 12,2 km/h (2 Bft)
13/11/2011 06:05 11,8 C 82 % 1022,1 hPa 0,0 mm 7,2 km/h (2 Bft) SE 135 0 min 0 W/m 8,8 C 11,8 C 10,4 km/h (2 Bft)
13/11/2011 06:10 11,8 C 82 % 1022,2 hPa 0,0 mm 8,3 km/h (2 Bft) SE 135 0 min 0 W/m 8,8 C 11,8 C 8,3 km/h (2 Bft)
13/11/2011 06:15 11,9 C 81 % 1022,2 hPa 0,0 mm 9,4 km/h (2 Bft) SE 135 0 min 0 W/m 8,7 C 11,9 C 12,6 km/h (3 Bft)
13/11/2011 06:20 12,0 C 81 % 1022,2 hPa 0,0 mm 9,4 km/h (2 Bft) N 360 0 min 0 W/m 8,8 C 12,0 C 9,4 km/h (2 Bft)
13/11/2011 06:25 12,0 C 81 % 1022,2 hPa 0,0 mm 7,2 km/h (2 Bft) S-SE 157 0 min 0 W/m 8,8 C 12,0 C 11,5 km/h (2 Bft)
13/11/2011 06:30 11,9 C 81 % 1022,3 hPa 0,0 mm 4,0 km/h (1 Bft) E-SE 112 0 min 0 W/m 8,7 C 11,9 C 8,3 km/h (2 Bft)
13/11/2011 06:35 11,8 C 81 % 1022,4 hPa 0,0 mm 1,4 km/h (1 Bft) E 90 0 min 0 W/m 8,6 C 11,8 C 2,9 km/h (1 Bft)
13/11/2011 06:40 11,8 C 81 % 1022,4 hPa 0,0 mm 4,0 km/h (1 Bft) SE 135 0 min 0 W/m 8,6 C 11,8 C 7,2 km/h (2 Bft)
13/11/2011 06:45 11,6 C 81 % 1022,4 hPa 0,0 mm 3,6 km/h (1 Bft) E-SE 112 0 min 0 W/m 8,5 C 11,6 C 6,8 km/h (2 Bft)
13/11/2011 06:50 11,5 C 81 % 1022,4 hPa 0,0 mm 2,5 km/h (1 Bft) E 90 0 min 0 W/m 8,4 C 11,5 C 7,9 km/h (2 Bft)
13/11/2011 06:55 11,4 C 81 % 1022,4 hPa 0,0 mm 6,5 km/h (2 Bft) E-SE 112 0 min 0 W/m 8,3 C 11,4 C 11,2 km/h (2 Bft)
13/11/2011 07:00 11,3 C 81 % 1022,4 hPa 0,0 mm 2,9 km/h (1 Bft) E-SE 112 0 min 0 W/m 8,2 C 11,3 C 4,3 km/h (1 Bft)
13/11/2011 07:05 11,2 C 82 % 1022,4 hPa 0,0 mm 7,9 km/h (2 Bft) E 90 0 min 0 W/m 8,2 C 11,2 C 7,9 km/h (2 Bft)
13/11/2011 07:10 11,1 C 82 % 1022,4 hPa 0,0 mm 3,2 km/h (1 Bft) E-NE 67 0 min 0 W/m 8,1 C 11,1 C 7,9 km/h (2 Bft)
13/11/2011 07:15 11,1 C 82 % 1022,5 hPa 0,0 mm 2,5 km/h (1 Bft) E-SE 112 0 min 0 W/m 8,1 C 11,1 C 4,0 km/h (1 Bft)
13/11/2011 07:20 10,9 C 83 % 1022,4 hPa 0,0 mm 1,8 km/h (1 Bft) SE 135 0 min 0 W/m 8,1 C 10,9 C 1,8 km/h (1 Bft)
13/11/2011 07:25 10,9 C 83 % 1022,5 hPa 0,0 mm 2,5 km/h (1 Bft) S-SE 157 0 min 0 W/m 8,1 C 10,9 C 6,1 km/h (2 Bft)
13/11/2011 07:30 10,9 C 83 % 1022,4 hPa 0,0 mm 1,8 km/h (1 Bft) S-SE 157 0 min 0 W/m 8,1 C 10,9 C 6,5 km/h (2 Bft)
13/11/2011 07:35 10,8 C 83 % 1022,4 hPa 0,0 mm 2,9 km/h (1 Bft) E-SE 112 0 min 0 W/m 8,0 C 10,8 C 2,9 km/h (1 Bft)
13/11/2011 07:40 10,8 C 83 % 1022,4 hPa 0,0 mm 5,8 km/h (2 Bft) E 90 0 min 0 W/m 8,0 C 10,8 C 5,8 km/h (2 Bft)
13/11/2011 07:45 10,8 C 83 % 1022,5 hPa 0,0 mm 2,9 km/h (1 Bft) E-SE 112 0 min 0 W/m 8,0 C 10,8 C 7,9 km/h (2 Bft)
13/11/2011 07:50 10,8 C 83 % 1022,5 hPa 0,0 mm 4,7 km/h (1 Bft) E 90 0 min 0 W/m 8,0 C 10,8 C 6,8 km/h (2 Bft)
13/11/2011 07:55 10,9 C 83 % 1022,6 hPa 0,0 mm 2,5 km/h (1 Bft) E-SE 112 0 min 0 W/m 8,1 C 10,9 C 2,9 km/h (1 Bft)
13/11/2011 08:00 11,0 C 83 % 1022,7 hPa 0,0 mm 5,8 km/h (2 Bft) SE 135 0 min 0 W/m 8,2 C 11,0 C 8,6 km/h (2 Bft)
13/11/2011 08:05 11,1 C 83 % 1022,6 hPa 0,0 mm 4,7 km/h (1 Bft) SE 135 0 min 0 W/m 8,3 C 11,1 C 6,5 km/h (2 Bft)
13/11/2011 08:10 11,3 C 83 % 1022,7 hPa 0,0 mm 4,3 km/h (1 Bft) SE 135 0 min 0 W/m 8,5 C 11,3 C 8,3 km/h (2 Bft)
13/11/2011 08:15 11,4 C 83 % 1022,6 hPa 0,0 mm 10,4 km/h (2 Bft) SE 135 0 min 0 W/m 8,6 C 11,4 C 13,7 km/h (3 Bft)
13/11/2011 08:20 11,6 C 82 % 1022,7 hPa 0,0 mm 10,1 km/h (2 Bft) SE 135 0 min 0 W/m 8,6 C 11,6 C 11,2 km/h (2 Bft)
13/11/2011 08:25 11,8 C 82 % 1022,6 hPa 0,0 mm 10,8 km/h (2 Bft) S-SE 157 0 min 0 W/m 8,8 C 11,8 C 14,8 km/h (3 Bft)
13/11/2011 08:30 11,8 C 81 % 1022,7 hPa 0,0 mm 9,4 km/h (2 Bft) SE 135 0 min 0 W/m 8,6 C 11,8 C 12,2 km/h (2 Bft)
13/11/2011 08:35 11,9 C 81 % 1022,7 hPa 0,0 mm 6,5 km/h (2 Bft) E-SE 112 0 min 0 W/m 8,7 C 11,9 C 9,4 km/h (2 Bft)
13/11/2011 08:40 12,3 C 81 % 1022,8 hPa 0,0 mm 6,8 km/h (2 Bft) S-SE 157 0 min 0 W/m 9,1 C 12,3 C 8,6 km/h (2 Bft)
13/11/2011 08:45 12,6 C 80 % 1022,8 hPa 0,0 mm 6,5 km/h (2 Bft) E-SE 112 0 min 0 W/m 9,2 C 12,6 C 6,5 km/h (2 Bft)
13/11/2011 08:50 12,9 C 78 % 1022,9 hPa 0,0 mm 7,6 km/h (2 Bft) SE 135 0 min 0 W/m 9,2 C 12,9 C 10,4 km/h (2 Bft)
13/11/2011 08:55 13,3 C 78 % 1022,8 hPa 0,0 mm 7,2 km/h (2 Bft) E-SE 112 0 min 0 W/m 9,5 C 13,3 C 7,2 km/h (2 Bft)
13/11/2011 09:00 13,5 C 77 % 1022,9 hPa 0,0 mm 8,6 km/h (2 Bft) E-SE 112 0 min 0 W/m 9,5 C 13,5 C 15,1 km/h (3 Bft)
13/11/2011 09:05 13,8 C 76 % 1022,9 hPa 0,0 mm 8,6 km/h (2 Bft) SE 135 0 min 0 W/m 9,6 C 13,8 C 14,0 km/h (3 Bft)
13/11/2011 09:10 14,1 C 75 % 1022,9 hPa 0,0 mm 8,6 km/h (2 Bft) S-SE 157 0 min 0 W/m 9,7 C 14,1 C 16,6 km/h (3 Bft)
13/11/2011 09:15 14,2 C 74 % 1022,9 hPa 0,0 mm 9,4 km/h (2 Bft) E-SE 112 0 min 0 W/m 9,6 C 14,2 C 16,6 km/h (3 Bft)
13/11/2011 09:20 14,5 C 73 % 1023,0 hPa 0,0 mm 10,8 km/h (2 Bft) SE 135 0 min 0 W/m 9,7 C 14,5 C 11,2 km/h (2 Bft)
13/11/2011 09:25 14,8 C 73 % 1023,0 hPa 0,0 mm 4,7 km/h (1 Bft) SE 135 0 min 0 W/m 10,0 C 14,8 C 8,3 km/h (2 Bft)
13/11/2011 09:30 14,9 C 73 % 1022,8 hPa 0,0 mm 7,2 km/h (2 Bft) S 180 0 min 0 W/m 10,1 C 14,9 C 7,2 km/h (2 Bft)
13/11/2011 09:35 15,3 C 72 % 1022,9 hPa 0,0 mm 9,0 km/h (2 Bft) SE 135 0 min 0 W/m 10,3 C 15,3 C 11,9 km/h (2 Bft)
13/11/2011 09:40 15,4 C 71 % 1022,9 hPa 0,0 mm 9,7 km/h (2 Bft) SE 135 0 min 0 W/m 10,2 C 15,4 C 14,0 km/h (3 Bft)
13/11/2011 09:45 15,6 C 71 % 1023,1 hPa 0,0 mm 9,0 km/h (2 Bft) S 180 0 min 0 W/m 10,4 C 15,6 C 16,2 km/h (3 Bft)
13/11/2011 09:50 15,8 C 71 % 1023,2 hPa 0,0 mm 7,2 km/h (2 Bft) S 180 0 min 0 W/m 10,6 C 15,8 C 10,8 km/h (2 Bft)
13/11/2011 09:55 15,9 C 70 % 1023,2 hPa 0,0 mm 11,5 km/h (2 Bft) S-SE 157 0 min 0 W/m 10,4 C 15,9 C 17,3 km/h (3 Bft)
13/11/2011 10:00 16,3 C 70 % 1023,2 hPa 0,0 mm 11,5 km/h (2 Bft) S-SE 157 0 min 0 W/m 10,8 C 16,3 C 19,8 km/h (3 Bft)
13/11/2011 10:05 16,4 C 69 % 1023,3 hPa 0,0 mm 12,2 km/h (2 Bft) SE 135 0 min 0 W/m 10,7 C 16,4 C 16,2 km/h (3 Bft)
13/11/2011 10:10 16,6 C 68 % 1023,3 hPa 0,0 mm 12,2 km/h (2 Bft) N 360 0 min 0 W/m 10,7 C 16,6 C 12,2 km/h (2 Bft)
13/11/2011 10:15 16,8 C 68 % 1023,4 hPa 0,0 mm 11,2 km/h (2 Bft) SE 135 0 min 0 W/m 10,9 C 16,8 C 12,6 km/h (3 Bft)
13/11/2011 10:20 16,8 C 68 % 1023,4 hPa 0,0 mm 14,8 km/h (3 Bft) S-SE 157 0 min 0 W/m 10,9 C 16,8 C 26,6 km/h (4 Bft)
13/11/2011 10:25 16,9 C 68 % 1023,4 hPa 0,0 mm 14,4 km/h (3 Bft) SE 135 0 min 0 W/m 11,0 C 16,9 C 17,6 km/h (3 Bft)
13/11/2011 10:30 17,0 C 67 % 1023,3 hPa 0,0 mm 11,5 km/h (2 Bft) S 180 0 min 0 W/m 10,8 C 17,0 C 19,4 km/h (3 Bft)
13/11/2011 10:35 17,2 C 67 % 1023,4 hPa 0,0 mm 7,9 km/h (2 Bft) SE 135 0 min 0 W/m 11,0 C 17,2 C 7,9 km/h (2 Bft)
13/11/2011 10:40 17,4 C 67 % 1023,3 hPa 0,0 mm 15,5 km/h (3 Bft) E-SE 112 0 min 0 W/m 11,2 C 17,4 C 23,0 km/h (4 Bft)
13/11/2011 10:45 17,5 C 67 % 1023,2 hPa 0,0 mm 9,7 km/h (2 Bft) S-SE 157 0 min 0 W/m 11,3 C 17,5 C 9,7 km/h (2 Bft)
13/11/2011 10:50 17,6 C 66 % 1023,3 hPa 0,0 mm 14,0 km/h (3 Bft) S-SE 157 0 min 0 W/m 11,2 C 17,6 C 20,9 km/h (4 Bft)
13/11/2011 10:55 17,7 C 65 % 1023,2 hPa 0,0 mm 13,7 km/h (3 Bft) S-SE 157 0 min 0 W/m 11,0 C 17,7 C 24,5 km/h (4 Bft)
13/11/2011 11:00 17,6 C 65 % 1023,2 hPa 0,0 mm 14,8 km/h (3 Bft) SE 135 0 min 0 W/m 10,9 C 17,6 C 20,9 km/h (4 Bft)
13/11/2011 11:05 17,6 C 66 % 1023,2 hPa 0,0 mm 13,7 km/h (3 Bft) SE 135 0 min 0 W/m 11,2 C 17,6 C 19,4 km/h (3 Bft)
13/11/2011 11:10 17,8 C 66 % 1023,2 hPa 0,0 mm 9,0 km/h (2 Bft) E-SE 112 0 min 0 W/m 11,4 C 17,8 C 13,0 km/h (3 Bft)
13/11/2011 11:15 18,1 C 65 % 1023,2 hPa 0,0 mm 14,8 km/h (3 Bft) E-SE 112 0 min 0 W/m 11,4 C 18,1 C 14,8 km/h (3 Bft)
13/11/2011 11:20 18,2 C 65 % 1023,1 hPa 0,0 mm 9,4 km/h (2 Bft) SE 135 0 min 0 W/m 11,5 C 18,2 C 15,1 km/h (3 Bft)
13/11/2011 11:25 18,4 C 65 % 1023,2 hPa 0,0 mm 11,5 km/h (2 Bft) S-SE 157 0 min 0 W/m 11,7 C 18,4 C 19,1 km/h (3 Bft)
13/11/2011 11:30 18,4 C 64 % 1023,4 hPa 0,0 mm 14,0 km/h (3 Bft) S 180 0 min 0 W/m 11,5 C 18,4 C 23,0 km/h (4 Bft)
13/11/2011 11:35 18,4 C 64 % 1023,3 hPa 0,0 mm 5,0 km/h (1 Bft) S-SE 157 0 min 0 W/m 11,5 C 18,4 C 10,1 km/h (2 Bft)
13/11/2011 11:40 18,6 C 64 % 1023,3 hPa 0,0 mm 10,8 km/h (2 Bft) SE 135 0 min 0 W/m 11,7 C 18,6 C 13,3 km/h (3 Bft)
13/11/2011 11:45 18,7 C 63 % 1023,2 hPa 0,0 mm 10,4 km/h (2 Bft) SE 135 0 min 0 W/m 11,5 C 18,7 C 18,4 km/h (3 Bft)
13/11/2011 11:50 18,8 C 64 % 1023,1 hPa 0,0 mm 6,8 km/h (2 Bft) E-SE 112 0 min 0 W/m 11,8 C 18,8 C 12,2 km/h (2 Bft)
13/11/2011 11:55 18,8 C 64 % 1023,1 hPa 0,0 mm 6,5 km/h (2 Bft) SE 135 0 min 0 W/m 11,8 C 18,8 C 10,8 km/h (2 Bft)
13/11/2011 12:00 18,9 C 64 % 1023,1 hPa 0,0 mm 7,9 km/h (2 Bft) SE 135 0 min 0 W/m 11,9 C 18,9 C 18,0 km/h (3 Bft)
13/11/2011 12:05 19,1 C 64 % 1023,1 hPa 0,0 mm 9,4 km/h (2 Bft) S 180 0 min 0 W/m 12,1 C 19,1 C 16,9 km/h (3 Bft)
13/11/2011 12:10 19,1 C 63 % 1023,0 hPa 0,0 mm 15,1 km/h (3 Bft) S-SE 157 0 min 0 W/m 11,9 C 19,1 C 18,7 km/h (3 Bft)
13/11/2011 12:15 18,9 C 63 % 1023,1 hPa 0,0 mm 7,9 km/h (2 Bft) S 180 0 min 0 W/m 11,7 C 18,9 C 11,2 km/h (2 Bft)
13/11/2011 12:20 18,9 C 63 % 1023,1 hPa 0,0 mm 6,8 km/h (2 Bft) S 180 0 min 0 W/m 11,7 C 18,9 C 6,8 km/h (2 Bft)
13/11/2011 12:25 18,9 C 62 % 1023,0 hPa 0,0 mm 15,8 km/h (3 Bft) S-SE 157 0 min 0 W/m 11,5 C 18,9 C 24,5 km/h (4 Bft)
13/11/2011 12:30 19,1 C 64 % 1022,9 hPa 0,0 mm 7,2 km/h (2 Bft) S 180 0 min 0 W/m 12,1 C 19,1 C 15,5 km/h (3 Bft)
13/11/2011 12:35 19,1 C 63 % 1022,9 hPa 0,0 mm 9,0 km/h (2 Bft) SE 135 0 min 0 W/m 11,9 C 19,1 C 9,0 km/h (2 Bft)
13/11/2011 12:40 19,3 C 63 % 1022,9 hPa 0,0 mm 5,4 km/h (2 Bft) SE 135 0 min 0 W/m 12,1 C 19,3 C 11,5 km/h (2 Bft)
13/11/2011 12:45 19,4 C 62 % 1022,9 hPa 0,0 mm 10,4 km/h (2 Bft) S 180 0 min 0 W/m 11,9 C 19,4 C 14,4 km/h (3 Bft)
13/11/2011 12:50 19,3 C 62 % 1022,8 hPa 0,0 mm 11,2 km/h (2 Bft) SE 135 0 min 0 W/m 11,8 C 19,3 C 14,8 km/h (3 Bft)
13/11/2011 12:55 19,1 C 63 % 1022,8 hPa 0,0 mm 11,9 km/h (2 Bft) SE 135 0 min 0 W/m 11,9 C 19,1 C 15,1 km/h (3 Bft)
13/11/2011 13:00 19,1 C 62 % 1022,7 hPa 0,0 mm 10,8 km/h (2 Bft) S 180 0 min 0 W/m 11,6 C 19,1 C 10,8 km/h (2 Bft)
13/11/2011 13:05 18,9 C 63 % 1022,6 hPa 0,0 mm 7,9 km/h (2 Bft) S-SO 202 0 min 0 W/m 11,7 C 18,9 C 8,3 km/h (2 Bft)
13/11/2011 13:10 18,8 C 63 % 1022,4 hPa 0,0 mm 11,9 km/h (2 Bft) E-SE 112 0 min 0 W/m 11,6 C 18,8 C 20,9 km/h (4 Bft)
13/11/2011 13:15 18,8 C 63 % 1022,4 hPa 0,0 mm 10,4 km/h (2 Bft) S-SE 157 0 min 0 W/m 11,6 C 18,8 C 17,3 km/h (3 Bft)
13/11/2011 13:20 18,7 C 63 % 1022,4 hPa 0,0 mm 9,4 km/h (2 Bft) S-SE 157 0 min 0 W/m 11,5 C 18,7 C 13,3 km/h (3 Bft)
13/11/2011 13:25 18,7 C 63 % 1022,4 hPa 0,0 mm 10,4 km/h (2 Bft) S 180 0 min 0 W/m 11,5 C 18,7 C 14,0 km/h (3 Bft)
13/11/2011 13:30 18,7 C 64 % 1022,3 hPa 0,0 mm 2,9 km/h (1 Bft) E-SE 112 0 min 0 W/m 11,7 C 18,7 C 2,9 km/h (1 Bft)
13/11/2011 13:35 18,7 C 65 % 1022,4 hPa 0,0 mm 2,5 km/h (1 Bft) S-SE 157 0 min 0 W/m 12,0 C 18,7 C 3,6 km/h (1 Bft)
13/11/2011 13:40 18,8 C 64 % 1022,3 hPa 0,0 mm 3,2 km/h (1 Bft) S-SE 157 0 min 0 W/m 11,8 C 18,8 C 6,1 km/h (2 Bft)
13/11/2011 13:45 18,8 C 63 % 1022,3 hPa 0,0 mm 5,0 km/h (1 Bft) S-SE 157 0 min 0 W/m 11,6 C 18,8 C 7,6 km/h (2 Bft)
13/11/2011 13:50 18,8 C 64 % 1022,2 hPa 0,0 mm 0,0 km/h (0 Bft) S-SE 157 0 min 0 W/m 11,8 C 18,8 C 4,0 km/h (1 Bft)
13/11/2011 13:55 18,7 C 64 % 1022,1 hPa 0,0 mm 12,6 km/h (3 Bft) S-SO 202 0 min 0 W/m 11,7 C 18,7 C 24,5 km/h (4 Bft)
13/11/2011 14:00 18,6 C 64 % 1022,1 hPa 0,0 mm 9,4 km/h (2 Bft) E-SE 112 0 min 0 W/m 11,7 C 18,6 C 12,6 km/h (3 Bft)
13/11/2011 14:05 18,5 C 63 % 1022,0 hPa 0,0 mm 7,9 km/h (2 Bft) S-SE 157 0 min 0 W/m 11,3 C 18,5 C 10,4 km/h (2 Bft)
13/11/2011 14:10 18,4 C 64 % 1022,0 hPa 0,0 mm 10,1 km/h (2 Bft) SE 135 0 min 0 W/m 11,5 C 18,4 C 11,9 km/h (2 Bft)
13/11/2011 14:15 18,4 C 64 % 1021,7 hPa 0,0 mm 11,5 km/h (2 Bft) S-SE 157 0 min 0 W/m 11,5 C 18,4 C 15,8 km/h (3 Bft)
13/11/2011 14:20 18,3 C 64 % 1021,8 hPa 0,0 mm 10,4 km/h (2 Bft) SE 135 0 min 0 W/m 11,4 C 18,3 C 16,2 km/h (3 Bft)
13/11/2011 14:25 18,3 C 64 % 1021,9 hPa 0,0 mm 6,8 km/h (2 Bft) SE 135 0 min 0 W/m 11,4 C 18,3 C 7,9 km/h (2 Bft)
13/11/2011 14:30 18,3 C 64 % 1021,8 hPa 0,0 mm 3,6 km/h (1 Bft) SE 135 0 min 0 W/m 11,4 C 18,3 C 7,6 km/h (2 Bft)
13/11/2011 14:35 18,2 C 64 % 1022,0 hPa 0,0 mm 11,2 km/h (2 Bft) S 180 0 min 0 W/m 11,3 C 18,2 C 11,2 km/h (2 Bft)
13/11/2011 14:40 18,3 C 64 % 1022,0 hPa 0,0 mm 6,8 km/h (2 Bft) E-SE 112 0 min 0 W/m 11,4 C 18,3 C 10,4 km/h (2 Bft)
13/11/2011 14:45 18,3 C 64 % 1021,9 hPa 0,0 mm 9,4 km/h (2 Bft) SE 135 0 min 0 W/m 11,4 C 18,3 C 14,4 km/h (3 Bft)
13/11/2011 14:50 18,3 C 64 % 1021,9 hPa 0,0 mm 10,1 km/h (2 Bft) SE 135 0 min 0 W/m 11,4 C 18,3 C 14,0 km/h (3 Bft)
13/11/2011 14:55 18,3 C 64 % 1021,8 hPa 0,0 mm 7,9 km/h (2 Bft) SE 135 0 min 0 W/m 11,4 C 18,3 C 13,3 km/h (3 Bft)
13/11/2011 15:00 18,3 C 64 % 1021,8 hPa 0,0 mm 10,1 km/h (2 Bft) S-SE 157 0 min 0 W/m 11,4 C 18,3 C 15,8 km/h (3 Bft)
13/11/2011 15:05 18,4 C 64 % 1021,9 hPa 0,0 mm 11,5 km/h (2 Bft) S 180 0 min 0 W/m 11,5 C 18,4 C 19,4 km/h (3 Bft)
13/11/2011 15:10 18,5 C 65 % 1021,8 hPa 0,0 mm 3,6 km/h (1 Bft) S-SE 157 0 min 0 W/m 11,8 C 18,5 C 7,9 km/h (2 Bft)
13/11/2011 15:15 18,6 C 64 % 1021,9 hPa 0,0 mm 4,0 km/h (1 Bft) SE 135 0 min 0 W/m 11,7 C 18,6 C 10,1 km/h (2 Bft)
13/11/2011 15:20 18,6 C 64 % 1021,8 hPa 0,0 mm 5,4 km/h (2 Bft) SE 135 0 min 0 W/m 11,7 C 18,6 C 7,9 km/h (2 Bft)
13/11/2011 15:25 18,7 C 63 % 1021,9 hPa 0,0 mm 7,6 km/h (2 Bft) S 180 0 min 0 W/m 11,5 C 18,7 C 10,1 km/h (2 Bft)
13/11/2011 15:30 18,8 C 64 % 1021,9 hPa 0,0 mm 2,5 km/h (1 Bft) E-SE 112 0 min 0 W/m 11,8 C 18,8 C 6,5 km/h (2 Bft)
13/11/2011 15:35 18,8 C 63 % 1022,0 hPa 0,0 mm 7,6 km/h (2 Bft) S-SE 157 0 min 0 W/m 11,6 C 18,8 C 11,2 km/h (2 Bft)
13/11/2011 15:40 18,8 C 63 % 1021,9 hPa 0,0 mm 4,3 km/h (1 Bft) S 180 0 min 0 W/m 11,6 C 18,8 C 4,3 km/h (1 Bft)
13/11/2011 15:45 18,6 C 62 % 1022,0 hPa 0,0 mm 11,2 km/h (2 Bft) S-SE 157 0 min 0 W/m 11,2 C 18,6 C 19,8 km/h (3 Bft)
13/11/2011 15:50 18,6 C 63 % 1022,0 hPa 0,0 mm 10,4 km/h (2 Bft) S-SE 157 0 min 0 W/m 11,4 C 18,6 C 12,2 km/h (2 Bft)
13/11/2011 15:55 18,5 C 63 % 1021,9 hPa 0,0 mm 4,3 km/h (1 Bft) S-SO 202 0 min 0 W/m 11,3 C 18,5 C 11,5 km/h (2 Bft)
13/11/2011 16:00 18,4 C 62 % 1022,0 hPa 0,0 mm 10,8 km/h (2 Bft) S-SO 202 0 min 0 W/m 11,0 C 18,4 C 10,8 km/h (2 Bft)
13/11/2011 16:05 18,3 C 63 % 1022,0 hPa 0,0 mm 6,8 km/h (2 Bft) S-SE 157 0 min 0 W/m 11,1 C 18,3 C 11,5 km/h (2 Bft)
13/11/2011 16:10 18,3 C 64 % 1022,1 hPa 0,0 mm 6,5 km/h (2 Bft) S 180 0 min 0 W/m 11,4 C 18,3 C 7,2 km/h (2 Bft)
13/11/2011 16:15 18,1 C 64 % 1022,2 hPa 0,0 mm 6,5 km/h (2 Bft) N 360 0 min 0 W/m 11,2 C 18,1 C 6,5 km/h (2 Bft)
13/11/2011 16:20 18,0 C 64 % 1022,2 hPa 0,0 mm 7,2 km/h (2 Bft) S 180 0 min 0 W/m 11,1 C 18,0 C 11,5 km/h (2 Bft)
13/11/2011 16:25 17,9 C 65 % 1022,2 hPa 0,0 mm 7,2 km/h (2 Bft) S 180 0 min 0 W/m 11,2 C 17,9 C 7,2 km/h (2 Bft)
13/11/2011 16:30 17,8 C 65 % 1022,1 hPa 0,0 mm 5,4 km/h (2 Bft) SE 135 0 min 0 W/m 11,1 C 17,8 C 7,2 km/h (2 Bft)
13/11/2011 16:35 17,6 C 65 % 1022,1 hPa 0,0 mm 3,6 km/h (1 Bft) S 180 0 min 0 W/m 10,9 C 17,6 C 3,6 km/h (1 Bft)
13/11/2011 16:40 17,5 C 65 % 1022,1 hPa 0,0 mm 3,6 km/h (1 Bft) S-SO 202 0 min 0 W/m 10,8 C 17,5 C 8,3 km/h (2 Bft)
13/11/2011 16:45 17,3 C 66 % 1022,1 hPa 0,0 mm 6,1 km/h (2 Bft) SO 225 0 min 0 W/m 10,9 C 17,3 C 6,8 km/h (2 Bft)
13/11/2011 16:50 17,1 C 66 % 1022,1 hPa 0,0 mm 5,8 km/h (2 Bft) S-SE 157 0 min 0 W/m 10,7 C 17,1 C 8,3 km/h (2 Bft)
13/11/2011 16:55 16,9 C 67 % 1022,0 hPa 0,0 mm 5,4 km/h (2 Bft) S 180 0 min 0 W/m 10,7 C 16,9 C 7,2 km/h (2 Bft)
13/11/2011 17:00 16,8 C 67 % 1022,0 hPa 0,0 mm 2,5 km/h (1 Bft) S-SO 202 0 min 0 W/m 10,6 C 16,8 C 4,0 km/h (1 Bft)
13/11/2011 17:05 16,6 C 67 % 1022,0 hPa 0,0 mm 1,1 km/h (1 Bft) S-SE 157 0 min 0 W/m 10,4 C 16,6 C 1,1 km/h (1 Bft)
13/11/2011 17:10 16,4 C 68 % 1022,1 hPa 0,0 mm 1,4 km/h (1 Bft) S-SE 157 0 min 0 W/m 10,5 C 16,4 C 4,3 km/h (1 Bft)
13/11/2011 17:15 16,2 C 68 % 1022,1 hPa 0,0 mm 1,8 km/h (1 Bft) S-SE 157 0 min 0 W/m 10,3 C 16,2 C 4,3 km/h (1 Bft)
13/11/2011 17:20 15,9 C 69 % 1022,0 hPa 0,0 mm 5,4 km/h (2 Bft) S 180 0 min 0 W/m 10,2 C 15,9 C 10,1 km/h (2 Bft)
13/11/2011 17:25 15,8 C 70 % 1022,0 hPa 0,0 mm 2,5 km/h (1 Bft) S-SE 157 0 min 0 W/m 10,3 C 15,8 C 4,3 km/h (1 Bft)
13/11/2011 17:30 15,7 C 70 % 1022,0 hPa 0,0 mm 6,8 km/h (2 Bft) S-SE 157 0 min 0 W/m 10,2 C 15,7 C 9,0 km/h (2 Bft)
13/11/2011 17:35 15,6 C 70 % 1022,0 hPa 0,0 mm 2,5 km/h (1 Bft) S-SE 157 0 min 0 W/m 10,1 C 15,6 C 4,0 km/h (1 Bft)
13/11/2011 17:40 15,4 C 70 % 1021,9 hPa 0,0 mm 4,7 km/h (1 Bft) S-SE 157 0 min 0 W/m 10,0 C 15,4 C 8,6 km/h (2 Bft)
13/11/2011 17:45 15,4 C 71 % 1021,9 hPa 0,0 mm 4,7 km/h (1 Bft) S-SE 157 0 min 0 W/m 10,2 C 15,4 C 11,9 km/h (2 Bft)
13/11/2011 17:50 15,2 C 71 % 1021,9 hPa 0,0 mm 0,4 km/h (0 Bft) SE 135 0 min 0 W/m 10,0 C 15,2 C 4,3 km/h (1 Bft)
13/11/2011 17:55 15,2 C 71 % 1021,9 hPa 0,0 mm 3,6 km/h (1 Bft) S-SE 157 0 min 0 W/m 10,0 C 15,2 C 9,4 km/h (2 Bft)
13/11/2011 18:00 15,1 C 71 % 1021,9 hPa 0,0 mm 4,3 km/h (1 Bft) SE 135 0 min 0 W/m 9,9 C 15,1 C 8,6 km/h (2 Bft)
13/11/2011 18:05 15,0 C 71 % 1021,9 hPa 0,0 mm 4,0 km/h (1 Bft) S-SE 157 0 min 0 W/m 9,8 C 15,0 C 4,0 km/h (1 Bft)
13/11/2011 18:10 14,9 C 71 % 1021,9 hPa 0,0 mm 4,0 km/h (1 Bft) SE 135 0 min 0 W/m 9,7 C 14,9 C 11,2 km/h (2 Bft)
13/11/2011 18:15 14,9 C 72 % 1021,9 hPa 0,0 mm 2,5 km/h (1 Bft) SE 135 0 min 0 W/m 9,9 C 14,9 C 4,0 km/h (1 Bft)
13/11/2011 18:20 14,8 C 72 % 1022,0 hPa 0,0 mm 1,4 km/h (1 Bft) S-SO 202 0 min 0 W/m 9,8 C 14,8 C 4,3 km/h (1 Bft)
13/11/2011 18:25 14,6 C 72 % 1022,0 hPa 0,0 mm 6,1 km/h (2 Bft) S-SE 157 0 min 0 W/m 9,6 C 14,6 C 12,6 km/h (3 Bft)
13/11/2011 18:30 14,5 C 72 % 1022,0 hPa 0,0 mm 1,8 km/h (1 Bft) SE 135 0 min 0 W/m 9,5 C 14,5 C 1,8 km/h (1 Bft)
13/11/2011 18:35 14,4 C 72 % 1022,0 hPa 0,0 mm 2,9 km/h (1 Bft) SE 135 0 min 0 W/m 9,4 C 14,4 C 5,8 km/h (2 Bft)
13/11/2011 18:40 14,4 C 72 % 1022,0 hPa 0,0 mm 2,5 km/h (1 Bft) S-SE 157 0 min 0 W/m 9,4 C 14,4 C 2,5 km/h (1 Bft)
13/11/2011 18:45 14,3 C 72 % 1022,1 hPa 0,0 mm 3,2 km/h (1 Bft) S-SE 157 0 min 0 W/m 9,3 C 14,3 C 4,3 km/h (1 Bft)
13/11/2011 18:50 14,3 C 72 % 1022,0 hPa 0,0 mm 3,6 km/h (1 Bft) SE 135 0 min 0 W/m 9,3 C 14,3 C 7,6 km/h (2 Bft)
13/11/2011 18:55 14,3 C 71 % 1022,1 hPa 0,0 mm 1,8 km/h (1 Bft) E-SE 112 0 min 0 W/m 9,1 C 14,3 C 3,2 km/h (1 Bft)
13/11/2011 19:00 14,3 C 70 % 1022,1 hPa 0,0 mm 2,2 km/h (1 Bft) S 180 0 min 0 W/m 8,9 C 14,3 C 3,2 km/h (1 Bft)
13/11/2011 19:05 14,4 C 67 % 1022,1 hPa 0,0 mm 7,6 km/h (2 Bft) S-SO 202 0 min 0 W/m 8,4 C 14,4 C 13,7 km/h (3 Bft)
13/11/2011 19:10 14,5 C 66 % 1022,1 hPa 0,0 mm 4,0 km/h (1 Bft) S-SE 157 0 min 0 W/m 8,2 C 14,5 C 7,6 km/h (2 Bft)
13/11/2011 19:15 14,5 C 66 % 1022,2 hPa 0,0 mm 0,0 km/h (0 Bft) S-SE 157 0 min 0 W/m 8,2 C 14,5 C 0,0 km/h (0 Bft)
13/11/2011 19:20 14,4 C 66 % 1022,2 hPa 0,0 mm 3,6 km/h (1 Bft) S 180 0 min 0 W/m 8,1 C 14,4 C 9,7 km/h (2 Bft)
13/11/2011 19:25 14,3 C 64 % 1022,2 hPa 0,0 mm 13,0 km/h (3 Bft) S 180 0 min 0 W/m 7,6 C 14,3 C 20,9 km/h (4 Bft)
13/11/2011 19:30 14,4 C 64 % 1022,2 hPa 0,0 mm 7,6 km/h (2 Bft) O-SO 247 0 min 0 W/m 7,7 C 14,4 C 9,7 km/h (2 Bft)
13/11/2011 19:35 14,4 C 64 % 1022,2 hPa 0,0 mm 6,8 km/h (2 Bft) E-SE 112 0 min 0 W/m 7,7 C 14,4 C 8,6 km/h (2 Bft)
13/11/2011 19:40 14,4 C 64 % 1022,2 hPa 0,0 mm 12,2 km/h (2 Bft) S-SO 202 0 min 0 W/m 7,7 C 14,4 C 17,6 km/h (3 Bft)
13/11/2011 19:45 14,4 C 64 % 1022,2 hPa 0,0 mm 6,5 km/h (2 Bft) S 180 0 min 0 W/m 7,7 C 14,4 C 12,2 km/h (2 Bft)
13/11/2011 19:50 14,4 C 63 % 1022,1 hPa 0,0 mm 5,8 km/h (2 Bft) E-SE 112 0 min 0 W/m 7,4 C 14,4 C 5,8 km/h (2 Bft)
13/11/2011 19:55 14,4 C 61 % 1022,1 hPa 0,0 mm 8,6 km/h (2 Bft) S 180 0 min 0 W/m 7,0 C 14,4 C 11,5 km/h (2 Bft)
13/11/2011 20:00 14,3 C 62 % 1022,0 hPa 0,0 mm 8,3 km/h (2 Bft) S-SE 157 0 min 0 W/m 7,1 C 14,3 C 20,5 km/h (4 Bft)
13/11/2011 20:05 14,4 C 60 % 1022,1 hPa 0,0 mm 14,8 km/h (3 Bft) SE 135 0 min 0 W/m 6,7 C 14,4 C 14,8 km/h (3 Bft)
13/11/2011 20:10 14,6 C 60 % 1021,9 hPa 0,0 mm 9,4 km/h (2 Bft) E-SE 112 0 min 0 W/m 6,9 C 14,6 C 14,4 km/h (3 Bft)
13/11/2011 20:15 14,6 C 59 % 1022,0 hPa 0,0 mm 5,4 km/h (2 Bft) S-SE 157 0 min 0 W/m 6,7 C 14,6 C 5,4 km/h (2 Bft)
13/11/2011 20:20 14,5 C 59 % 1021,9 hPa 0,0 mm 5,4 km/h (2 Bft) S-SE 157 0 min 0 W/m 6,6 C 14,5 C 8,6 km/h (2 Bft)
13/11/2011 20:25 14,6 C 58 % 1021,9 hPa 0,0 mm 2,2 km/h (1 Bft) S-SE 157 0 min 0 W/m 6,4 C 14,6 C 7,9 km/h (2 Bft)
13/11/2011 20:30 14,6 C 59 % 1021,8 hPa 0,0 mm 2,9 km/h (1 Bft) E-SE 112 0 min 0 W/m 6,7 C 14,6 C 6,8 km/h (2 Bft)
13/11/2011 20:35 14,4 C 60 % 1022,0 hPa 0,0 mm 4,7 km/h (1 Bft) SE 135 0 min 0 W/m 6,7 C 14,4 C 4,7 km/h (1 Bft)
13/11/2011 20:40 14,2 C 61 % 1021,9 hPa 0,0 mm 1,1 km/h (1 Bft) E-SE 112 0 min 0 W/m 6,8 C 14,2 C 4,0 km/h (1 Bft)
13/11/2011 20:45 13,9 C 62 % 1022,0 hPa 0,0 mm 0,7 km/h (0 Bft) S-SE 157 0 min 0 W/m 6,7 C 13,9 C 4,3 km/h (1 Bft)
13/11/2011 20:50 13,6 C 63 % 1022,0 hPa 0,0 mm 2,2 km/h (1 Bft) E-SE 112 0 min 0 W/m 6,7 C 13,6 C 4,0 km/h (1 Bft)
13/11/2011 20:55 13,4 C 64 % 1022,0 hPa 0,0 mm 2,2 km/h (1 Bft) SE 135 0 min 0 W/m 6,7 C 13,4 C 4,3 km/h (1 Bft)
13/11/2011 21:00 13,2 C 64 % 1022,0 hPa 0,0 mm 3,2 km/h (1 Bft) S-SE 157 0 min 0 W/m 6,5 C 13,2 C 4,3 km/h (1 Bft)
13/11/2011 21:05 13,1 C 65 % 1022,0 hPa 0,0 mm 5,0 km/h (1 Bft) S-SE 157 0 min 0 W/m 6,7 C 13,1 C 9,4 km/h (2 Bft)
13/11/2011 21:10 12,9 C 65 % 1022,0 hPa 0,0 mm 2,5 km/h (1 Bft) S-SE 157 0 min 0 W/m 6,5 C 12,9 C 6,5 km/h (2 Bft)
13/11/2011 21:15 12,9 C 64 % 1021,9 hPa 0,0 mm 0,0 km/h (0 Bft) S 180 0 min 0 W/m 6,3 C 12,9 C 0,0 km/h (0 Bft)
13/11/2011 21:20 12,8 C 64 % 1021,9 hPa 0,0 mm 5,8 km/h (2 Bft) S-SE 157 0 min 0 W/m 6,2 C 12,8 C 6,1 km/h (2 Bft)
13/11/2011 21:25 12,9 C 64 % 1022,0 hPa 0,0 mm 5,4 km/h (2 Bft) SE 135 0 min 0 W/m 6,3 C 12,9 C 9,4 km/h (2 Bft)
13/11/2011 21:30 12,9 C 64 % 1022,0 hPa 0,0 mm 2,9 km/h (1 Bft) SE 135 0 min 0 W/m 6,3 C 12,9 C 4,0 km/h (1 Bft)
13/11/2011 21:35 12,8 C 63 % 1022,0 hPa 0,0 mm 5,0 km/h (1 Bft) SE 135 0 min 0 W/m 5,9 C 12,8 C 7,9 km/h (2 Bft)
13/11/2011 21:40 12,8 C 62 % 1022,1 hPa 0,0 mm 7,9 km/h (2 Bft) E-SE 112 0 min 0 W/m 5,7 C 12,8 C 9,7 km/h (2 Bft)
13/11/2011 21:45 12,8 C 62 % 1022,1 hPa 0,0 mm 2,5 km/h (1 Bft) S 180 0 min 0 W/m 5,7 C 12,8 C 7,2 km/h (2 Bft)
13/11/2011 21:50 12,9 C 62 % 1022,1 hPa 0,0 mm 0,4 km/h (0 Bft) S 180 0 min 0 W/m 5,8 C 12,9 C 3,6 km/h (1 Bft)
13/11/2011 21:55 12,9 C 62 % 1022,1 hPa 0,0 mm 3,2 km/h (1 Bft) S-SO 202 0 min 0 W/m 5,8 C 12,9 C 7,2 km/h (2 Bft)
13/11/2011 22:00 12,9 C 61 % 1022,1 hPa 0,0 mm 4,0 km/h (1 Bft) S-SE 157 0 min 0 W/m 5,6 C 12,9 C 6,5 km/h (2 Bft)
13/11/2011 22:05 12,9 C 61 % 1022,1 hPa 0,0 mm 6,5 km/h (2 Bft) S 180 0 min 0 W/m 5,6 C 12,9 C 7,2 km/h (2 Bft)
13/11/2011 22:10 12,9 C 61 % 1022,1 hPa 0,0 mm 6,1 km/h (2 Bft) S-SO 202 0 min 0 W/m 5,6 C 12,9 C 12,6 km/h (3 Bft)
13/11/2011 22:15 12,9 C 61 % 1022,1 hPa 0,0 mm 1,1 km/h (1 Bft) S-SE 157 0 min 0 W/m 5,6 C 12,9 C 6,5 km/h (2 Bft)
13/11/2011 22:20 12,8 C 62 % 1022,1 hPa 0,0 mm 6,8 km/h (2 Bft) S-SE 157 0 min 0 W/m 5,7 C 12,8 C 6,8 km/h (2 Bft)
13/11/2011 22:25 12,8 C 61 % 1022,1 hPa 0,0 mm 9,7 km/h (2 Bft) S-SE 157 0 min 0 W/m 5,5 C 12,8 C 11,9 km/h (2 Bft)
13/11/2011 22:30 12,8 C 61 % 1022,1 hPa 0,0 mm 3,6 km/h (1 Bft) S 180 0 min 0 W/m 5,5 C 12,8 C 8,3 km/h (2 Bft)
13/11/2011 22:35 12,7 C 61 % 1022,1 hPa 0,0 mm 10,1 km/h (2 Bft) SE 135 0 min 0 W/m 5,4 C 12,7 C 12,2 km/h (2 Bft)
13/11/2011 22:40 12,8 C 61 % 1022,1 hPa 0,0 mm 6,1 km/h (2 Bft) S 180 0 min 0 W/m 5,5 C 12,8 C 10,1 km/h (2 Bft)
13/11/2011 22:45 12,8 C 61 % 1022,0 hPa 0,0 mm 3,2 km/h (1 Bft) S-SE 157 0 min 0 W/m 5,5 C 12,8 C 4,3 km/h (1 Bft)
13/11/2011 22:50 12,8 C 61 % 1022,1 hPa 0,0 mm 4,0 km/h (1 Bft) E-SE 112 0 min 0 W/m 5,5 C 12,8 C 8,3 km/h (2 Bft)
13/11/2011 22:55 12,6 C 61 % 1022,0 hPa 0,0 mm 7,6 km/h (2 Bft) E-SE 112 0 min 0 W/m 5,3 C 12,6 C 10,4 km/h (2 Bft)
13/11/2011 23:00 12,7 C 60 % 1021,9 hPa 0,0 mm 5,8 km/h (2 Bft) S 180 0 min 0 W/m 5,1 C 12,7 C 8,3 km/h (2 Bft)
13/11/2011 23:05 12,6 C 60 % 1021,8 hPa 0,0 mm 2,2 km/h (1 Bft) S-SE 157 0 min 0 W/m 5,0 C 12,6 C 4,3 km/h (1 Bft)
13/11/2011 23:10 12,6 C 60 % 1021,8 hPa 0,0 mm 4,7 km/h (1 Bft) S 180 0 min 0 W/m 5,0 C 12,6 C 4,7 km/h (1 Bft)
13/11/2011 23:15 12,6 C 60 % 1021,8 hPa 0,0 mm 4,0 km/h (1 Bft) S 180 0 min 0 W/m 5,0 C 12,6 C 4,3 km/h (1 Bft)
13/11/2011 23:20 12,5 C 60 % 1021,7 hPa 0,0 mm 4,0 km/h (1 Bft) S 180 0 min 0 W/m 5,0 C 12,5 C 6,5 km/h (2 Bft)
13/11/2011 23:25 12,5 C 60 % 1021,6 hPa 0,0 mm 3,2 km/h (1 Bft) SE 135 0 min 0 W/m 5,0 C 12,5 C 8,3 km/h (2 Bft)
13/11/2011 23:30 12,5 C 60 % 1021,7 hPa 0,0 mm 6,5 km/h (2 Bft) SE 135 0 min 0 W/m 5,0 C 12,5 C 9,7 km/h (2 Bft)
13/11/2011 23:35 12,5 C 60 % 1021,7 hPa 0,0 mm 3,6 km/h (1 Bft) S-SE 157 0 min 0 W/m 5,0 C 12,5 C 7,9 km/h (2 Bft)
13/11/2011 23:40 12,4 C 60 % 1021,6 hPa 0,0 mm 4,0 km/h (1 Bft) SE 135 0 min 0 W/m 4,9 C 12,4 C 6,8 km/h (2 Bft)
13/11/2011 23:45 12,3 C 59 % 1021,6 hPa 0,0 mm 1,8 km/h (1 Bft) S-SE 157 0 min 0 W/m 4,5 C 12,3 C 6,1 km/h (2 Bft)
13/11/2011 23:50 12,3 C 59 % 1021,6 hPa 0,0 mm 8,3 km/h (2 Bft) S 180 0 min 0 W/m 4,5 C 12,3 C 10,8 km/h (2 Bft)
13/11/2011 23:55 12,3 C 59 % 1021,5 hPa 0,0 mm 0,4 km/h (0 Bft) E-SE 112 0 min 0 W/m 4,5 C 12,3 C 3,2 km/h (1 Bft)
_ Min-Heure 03:40 20:25 23:55 - 21:15 - - - - 23:55 03:40 21:15
Minimum _ 10,4 C 58 % 1021,5 hPa - 0,0 km/h (0 Bft) - - - - 4,5 C 10,4 C 0,0 km/h (0 Bft)
_ Max-Heure 12:45 01:05 00:05 23:55 12:25 - - 23:55 23:55 12:30 12:45 10:20
Maximum _ 19,4 C 88 % 1023,5 hPa 0,0 mm 15,8 km/h
S-SE (3 Bft)
- - 0 min 0 W/m 12,1 C 19,4 C 26,6 km/h
S-SE (4 Bft)
Moyenne _ 14,2 C 72 % 1022,4 hPa #0,0 mm 6,0 km/h (2 Bft) SE - #0 min. 0 W/m 9,1 C 14,2 C 9,2 km/h (2 Bft)
Saint Bonnet de Bellac- Haute Vienne - France